星链-31996 (STARLINK-31996 )

导读

STARLINK-31996是美国太空探索技术公司Starlink星座中的卫星,于2024年6月23日发射升空,归属星链互联网卫星项目,承担低轨卫星互联网组网运营任务。星链通过大规模低轨卫星部署,为全球多地用户提供高速互联网接入服务,该卫星的入轨进一步扩充了星链星座的服务覆盖范围与容量。

Basic Information
目录编号:
60100
目录名称:
STARLINK-31996
国际标识:
2024-117K
轨道中心:
EARTH
卫星名称:
星链-31996
卫星全名:
星链-31996 (STARLINK-31996 )
卫星状态:
在轨 (已飞行811 天)
发射日期:
2024-06-23 UTC
国别 :
美国 (US)
星等 :
--
This satellite is enrolled in the Space Conjunction Data Service (SCDS) and the current flight risk assessment level is: No High Risk
Orbit Information
数据来源 国际轨道数据
星历时间: 2026-09-11T15:41:13+0800
18小时前
查看轨道信息
半长轴: 6840.882km
偏心率: 0.0001278
轨道倾角: 53.158°
近地点辐角 88.063°
升交点赤经 252.316°
平近点角 272.052°
近地点: 461.87km
远地点: 463.62km
周期: 93.849分钟
每日圈数: 15.34386
Detailed Information
固有亮度:
5
最大亮度:
1.5
卫星平台:
Starlink v2.0 mini
覆盖范围:
全球
运营商:
太空探索技术公司
运营商所在国:
美国
制造商(研发单位):
太空探索技术公司
制造商所在国:
美国
使用方式:
暂无
Satellite Introduction
星链(Starlink)计划是由太空探索技术公司(SpaceX)提出的一个巨型低轨卫星互联网星座项目,计划在2019年至2024年间在太空搭建由约1.2万颗卫星组成的“星链”网络,其中1584颗将部署在地球上空550千米处的近地轨道,并从2020年开始工作。该卫星仍在工作。
2D Orbit Map
3D Orbit Map
Orbit Altitude Analysis Chart
Orbit Inclination Analysis Chart
Orbit Comprehensive Analysis Chart
View Comprehensive Chart
Conjunction Data List
Event ID Objects TCA Miss Dist (km) Collision Risk Probability Collision Risk Index (CRI) Action
CDM_260914-030504-316006-010022
2026-09-14T
03:05:51+0000
0.872 km
远距离
2.560394E-5 中风险 0.63
CDM_260914-040606-010006-951521
2026-09-14T
04:06:22+0000
0.702 km
远距离
2.420886E-5 中风险 0.63
CDM_260914-080006-010006-951521
2026-09-14T
08:00:51+0000
0.873 km
远距离
1.173616E-5 中风险 0.56
CDM_260913-024205-469006-010021
OBJECT J (54690)
2026-09-13T
02:42:31+0000
2.054 km
极远距离
2.670615E-6 低风险 0.44
CDM_260914-062706-010006-951521
2026-09-14T
06:27:03+0000
2.121 km
极远距离
8.141381E-7 极低风险 0.33
CDM_260914-054006-010006-951521
2026-09-14T
05:40:09+0000
2.145 km
极远距离
7.955292E-7 极低风险 0.33
Miss Distance Evolution Trend with All Objects
Collision Probability Evolution Trend with All Objects